Regional Weather Roundup
Issued by NWS

Home | Current Version | Previous Version | Text Only | Print | Product List | Glossary On
Versions: 1 2 3 4 5 6 7 8 9 10 11 12 13 14 15 16 17 18 19 20 21 22 23 24 25 26 27 28 29 30 31 32 33 34 35 36 37 38 39 40 41 42 43 44 45 46 47 48 49 50
000
ASUS43 KOAX 271402
RWRNE

WEATHER ROUNDUP FOR NEBRASKA
NATIONAL WEATHER SERVICE OMAHA NE
900 AM CDT SAT MAY 27 2017

NOTES: SATELLITE DATA IS BEING USED TO AUGMENT CLOUD COVER ABOVE
       12000 FEET.
       "FAIR" INDICATES FEW OR NO CLOUDS BELOW 12,000 FEET WITH NO
       SIGNIFICANT WEATHER AND/OR OBSTRUCTIONS TO VISIBILITY.

  * THESE STATIONS DO NOT REPORT WEATHER SUCH AS RAIN...SNOW OR FOG.

NEZ001>004-019>022-054>056-271500-
NEBRASKA PANHANDLE

CITY           SKY/WX    TMP DP  RH WIND       PRES   REMARKS
SCOTTSBLUFF    PTSUNNY   53  46  77 NW12G25   30.05R
ALLIANCE       CLOUDY    50  47  89 N9        30.04R
CHADRON        CLOUDY    52  47  83 W8        30.04R
GORDON         CLOUDY    51  48  90 CALM      30.02R
KIMBALL        CLOUDY    48  46  93 N14       30.06S
SIDNEY         LGT RAIN  49  47  93 N13       30.04R
$$

NEZ057>060-069>072-079>082-271500-
SOUTHWEST NEBRASKA

CITY           SKY/WX    TMP DP  RH WIND       PRES   REMARKS
NORTH PLATTE   CLOUDY    61  52  72 NE7       29.95R
IMPERIAL       CLOUDY    53  50  89 N9        29.98R
LEXINGTON      MOSUNNY   60  53  76 E10       29.92S
MCCOOK         SUNNY     60  55  83 NE15      29.92R
OGALLALA       CLOUDY    55  52  90 N7        30.00R
$$

NEZ005>010-023>029-035>040-094-271500-
NORTH CENTRAL NEBRASKA

CITY           SKY/WX    TMP DP  RH WIND       PRES   REMARKS
VALENTINE      LGT RAIN  53  49  86 NW8       30.00R
AINSWORTH      CLOUDY    55  49  82 NE7       29.99R
BROKEN BOW     MOSUNNY   58  52  80 NE10      29.93S
O`NEILL        CLOUDY    55  52  90 N6        29.97S
ORD            MOSUNNY   60  51  72 N9        29.92S
THEDFORD       CLOUDY    55  52  88 N9        29.98S
$$

NEZ041-046>049-061>064-073>077-083>087-271500-
SOUTH CENTRAL NEBRASKA

CITY           SKY/WX    TMP DP  RH WIND       PRES   REMARKS
GRAND ISLAND   CLOUDY    60  52  74 NE14      29.90F
AURORA         CLOUDY    60  52  75 NE12      29.89F
HASTINGS       CLOUDY    59  51  75 NE12      29.90S
HEBRON         CLOUDY    59  55  87 E8        29.88F
HOLDREGE       CLOUDY    58  50  74 NE13      29.90S
KEARNEY *      CLOUDY    61  48  63 NE13      29.91S
YORK           CLOUDY    59  54  82 NE9       29.90F
$$

NEZ011>018-030>034-042>045-271500-
NORTHEAST NEBRASKA

CITY           SKY/WX    TMP DP  RH WIND       PRES   REMARKS
NORFOLK        CLOUDY    58  51  78 N3        29.92S
ALBION         CLOUDY    60  50  70 N8        29.92F
BLAIR          LGT RAIN  61  49  64 W14G20    29.95R
FREMONT        CLOUDY    58  52  82 E5        29.93F
TEKAMAH        CLOUDY    60  50  69 CALM      29.92R
WAYNE          CLOUDY    59  52  75 NE13      29.91F
$$

NEZ050>053-065>068-078-088>093-271500-
SOUTHEAST NEBRASKA

CITY           SKY/WX    TMP DP  RH WIND       PRES   REMARKS
LINCOLN        LGT RAIN  57  54  89 NE10      29.89F
OMAHA EPPLEY   TSTM      60  51  72 SW22G30   29.95R
BEATRICE       CLOUDY    59  55  87 NE12      29.88R
FALLS CITY     LGT RAIN  59  57  93 E8        29.84F
NEBRASKA CITY  CLOUDY    57  57 100 NE13      29.85F
PLATTSMOUTH    TSTM      58  55  88 NW5       29.92S
$$

NEZ044-045-051>053-067-271500-
OMAHA AREA

CITY           SKY/WX    TMP DP  RH WIND       PRES   REMARKS
OMAHA EPPLEY   TSTM      60  51  72 SW22G30   29.95R
BLAIR          LGT RAIN  61  49  64 W14G20    29.95R
FREMONT        CLOUDY    58  52  82 E5        29.93F
MILLARD        RAIN      60  53  79 W7        29.94R
OFFUTT AFB     HVY RAIN  59  54  82 W7        29.94R
PLATTSMOUTH    TSTM      58  55  88 NW5       29.92S
WAHOO          LGT RAIN  58  53  83 E5        29.92F
$$




USA.gov is the U.S. government's official web portal to all federal, state and local government web resources and services.